This demonstration page uses our WeatherBlox Daily Observations layout. Learn more.

Left ArrowRight Arrow

Hourly Observations for April 21, 2018

Temp ( °F °C ) Dew Point ( °F °C ) Humidity (%) Winds ( mph kmh ) Pressure ( in mb ) Visibility ( mi km ) Precip ( " mm )
12:53 am 00:53 Clear 39 3.9 35 1.7 86 86 Calm 30.44 1031 10 16 0.00 0.00
1:53 am 01:53 Clear 39 3.9 33 0.6 79 79 Calm 30.45 1031 10 16 0.00 0.00
2:53 am 02:53 Clear 35 1.7 28 -2.2 76 76 Calm 30.45 1031 10 16 0.00 0.00
3:53 am 03:53 Clear 35 1.7 27 -2.8 72 72 Calm 30.45 1031 10 16 0.00 0.00
4:53 am 04:53 Clear 34 1.1 31 -0.6 89 89 NNE 3 6 30.45 1031 10 16 0.00 0.00
5:53 am 05:53 Clear 34 1.1 30 -1.1 85 85 Calm 30.44 1031 10 16 0.00 0.00
6:53 am 06:53 Sunny 33 0.6 26 -3.3 75 75 NE 3 6 30.45 1031 10 16 0.00 0.00
7:53 am 07:53 Sunny 39 3.9 25 -3.9 57 57 Calm 30.47 1032 10 16 0.00 0.00
8:53 am 08:53 Sunny 45 7.2 29 -1.7 54 54 E 3 6 30.47 1032 10 16 0.00 0.00
9:53 am 09:53 Sunny 50 10 22 -5.6 33 33 SE 6 9 30.47 1032 10 16 0.00 0.00
10:53 am 10:53 Sunny 53 11.7 23 -5 31 31 VRB 5 7 30.45 1031 10 16 0.00 0.00
11:53 am 11:53 Sunny 55 12.8 19 -7.2 24 24 VRB 7 11 30.44 1031 10 16 0.00 0.00
12:53 pm 12:53 Sunny 58 14.4 21 -6.1 24 24 ENE 7 11 30.42 1030 10 16 0.00 0.00
1:53 pm 13:53 Sunny 59 15 20 -6.7 22 22 VRB 5 7 30.40 1030 10 16 0.00 0.00
2:53 pm 14:53 Sunny 60 15.6 21 -6.1 22 22 NE 8 13 30.39 1029 10 16 0.00 0.00
3:53 pm 15:53 Sunny 62 16.7 27 -2.8 26 26 VRB 6 9 30.36 1028 10 16 0.00 0.00
4:53 pm 16:53 Sunny 60 15.6 27 -2.8 28 28 NNE 8 13 30.35 1028 10 16 0.00 0.00
5:53 pm 17:53 Sunny 59 15 27 -2.8 29 29 ENE 9 15 30.35 1028 10 16 0.00 0.00
6:53 pm 18:53 Sunny 57 13.9 24 -4.4 28 28 ENE 10 17 30.34 1028 10 16 0.00 0.00
7:53 pm 19:53 Sunny 55 12.8 24 -4.4 30 30 ENE 8 13 30.35 1028 10 16 0.00 0.00
8:53 pm 20:53 Clear 53 11.7 27 -2.8 37 37 NE 6 9 30.33 1027 10 16 0.00 0.00
9:53 pm 21:53 Clear 52 11.1 31 -0.6 45 45 Calm 30.36 1028 10 16 0.00 0.00
10:53 pm 22:53 Clear 52 11.1 26 -3.3 37 37 ENE 8 13 30.36 1028 10 16 0.00 0.00
11:53 pm 23:53 Clear 50 10 26 -3.3 39 39 ENE 6 9 30.34 1027 10 16 0.00 0.00

Powered by AerisWeather